Regional Weather Roundup
Issued by NWS Charleston, SC

Current Version | Previous Version | Graphics & Text | Print | Product List | Glossary On
Versions: 1 2 3 4 5 6 7 8 9 10 11 12 13 14 15 16 17 18 19 20 21 22 23 24 25 26 27 28 29 30 31 32 33 34 35 36 37 38 39 40 41 42 43 44 45 46 47 48 49 50
000 ASUS42 KCHS 230412 RWRCHS REGIONAL WEATHER ROUNDUP NATIONAL WEATHER SERVICE CHARLESTON SC 1200 AM EDT WED AUG 23 2017 NOTE: "FAIR" INDICATES FEW OR NO CLOUDS BELOW 12,000 FEET WITH NO SIGNIFICANT WEATHER AND/OR OBSTRUCTIONS TO VISIBILITY. NOT ALL STATIONS ARE QUALITY CONTROLLED. USE DATA WITH CAUTION... ESPECIALLY DEWPOINT OBSERVATIONS. SCZ027-030-031-034>040-042>050-230500- ...SOUTHEAST SOUTH CAROLINA... CITY SKY/WX TMP DP RH WIND PRES REMARKS N CHARLESTON CLEAR 77 75 93 S5 29.99S WATERFRONT PRK N/A 82 77 84 VRB3 29.83F HX 90 JOHNS ISLAND FAIR 81 77 89 CALM 29.99S PINOPOLIS N/A 79 75 89 SW5 29.92S MONCKS CORNER FAIR 75 73 94 SW5 29.99R SUMMERVILLE FAIR 75 73 94 CALM 30.00S BEAUFORT MCAS CLEAR 80 78 94 SW3 30.00R BEAUFORT ARPT FAIR 81 75 83 SW5 29.99S HILTON HEAD IS CLEAR 81 77 89 CALM 30.00S WALTERBORO CLEAR 77 73 88 CALM 30.00S ALLENDALE NOT AVBL ...SOUTHERN MIDLANDS AND PEE DEE... CITY SKY/WX TMP DP RH WIND PRES REMARKS GEORGETOWN FAIR 73 73 100 CALM 30.00S KINGSTREE FAIR 77 73 88 CALM 29.98S ORANGEBURG CLEAR 77 74 90 SW5 29.99S BARNWELL FAIR 81 77 89 SW6 29.99F AIKEN FAIR 73 72 94 S6 30.03S MANNING FAIR 79 70 73 CALM 29.98F COLUMBIA CLEAR 81 72 74 SW6 29.96F SUMTER PTCLDY 79 74 85 SW8 29.95F FLORENCE CLEAR 77 76 96 S6 29.97F MYRTLE BEACH CLEAR 80 74 81 SW6 30.00 N MYRTLE BEACH PTCLDY 81 75 82 W7 29.98F $$ GAZ063-065-086>088-099>101-113>116-118-119-134>141-150-230500- ...SOUTHEAST GEORGIA... CITY SKY/WX TMP DP RH WIND PRES REMARKS SAVANNAH ARPT PTCLDY 79 76 90 SW5 30.00S HUNTER AAF PTCLDY 79 75 89 SW2 29.97S FORT STEWART MOCLDY 77 74 89 CALM 29.98S STATESBORO CLEAR 79 72 78 CALM 30.00S SYLVANIA N/A 77 77 99 CALM 30.01S CLAXTON FAIR 77 76 94 CALM 30.00S ...CSRA...CENTRAL AND FAR SOUTHEAST GEORGIA... CITY SKY/WX TMP DP RH WIND PRES REMARKS THOMSON CLEAR 74 73 96 CALM 30.04F AUGUSTA-BUSH CLEAR 77 74 90 CALM 29.99R AUGUSTA-DANIEL CLEAR 80 72 76 SE7 30.00S SWAINSBORO FAIR 77 73 88 CALM 30.01S VIDALIA CLEAR 79 77 94 CALM 30.01S EASTMAN FAIR 76 76 100 CALM 30.03S HAZLEHURST FAIR 79 71 74 S3 30.00S ALMA CLEAR 76 73 91 CALM 30.00S WAYCROSS CLEAR 78 74 90 CALM 30.00S JESUP FAIR 75 73 94 CALM 30.00S BAXLEY FAIR 73 73 100 CALM 30.00F BRUNSWICK PTCLDY 79 73 83 CALM 30.00F SAINT SIMONS CLEAR 84 75 74 S8 29.99F HX 92 $$ SCZ027-028-034-036>038-045-046-048>050-GAZ119-141-230500- ...LAKE AND SUPPLEMENTAL COASTAL OBSERVATIONS... STATION/POSITION TIME TEMP WIND PRES WAVE SWELL AIR SEA DIR/SP/G HT/PER HT/PER/DIR (UTC) (F) (DEG/KT/KT) (MB) (FT/S) (FT/S/D) WINYAH BAY 0245 80 250/ 4 1016.0 LAKE MURRAY 0320 83 230/ 7/ 9 1014.2 ACE BASIN NERRS 0245 81 CALM 1016.0 FORT PULASKI 0342 83 87 230/ 4/ 7 1016.0S SAPELO ISLAND 0300 83 180/ 9 1016.0 $$ ANZ835-935-AMZ111-154-330-350-352-354-370-450-454-472-230500- ...C-MAN AND BUOY OBSERVATIONS... STATION/POSITION TIME TEMP WIND PRES WAVE SWELL AIR SEA DIR/SP/G HT/PER HT/PER/DIR (UTC) (F) (DEG/KT/KT) (MB) (FT/S) (FT/S/D) BUOY 41004 0350 83 84 210/ 12/ 14 1015.3F 5/10 5/120/10 BUOY 41008 0350 84 85 170/ 12/ 14 1015.3F 4/10 3/110/10 FOLLY BEACH CMAN 0300 84 210/ 12/ 15 1016.1F CAPERS NEARSHORE 0308 81 86 230/ 14/ 19 1015.1F FRIPP NEARSHORE 0308 84 210/ 10/ 14 1015.3S STATION/POSITION TIME TEMP WIND PRES WAVE SWELL AIR SEA DIR/SP/G HT/PER HT/PER/DIR (UTC) (F) (DEG/KT/KT) (MB) (FT/S) (FT/S/D) 5E ST. MARYS GA 0330 85 N/A 3/11 2/110/11 FRYING PAN BUOY 0350 83 84 210/ 12/ 14 1015.2F 4/10 3/140/10 BUOY 41025 0350 84 86 220/ 17/ 21 1014.5F 5/ 8 3/140/ 8 CAPE LOOKOUT NC 0300 82 220/ 10/ 13 1015.2F BUOY 41002 0350 82 84 150/ 8/ 8 1016.7F 3/10 3/100/10 BUOY 41010 0350 84 85 140/ 10/ 12 1016.0F 4/10 3/120/10 ST AUGUSTINE FL 0400 83 83 140/ 10/ 11 1016.4F $$

USA.gov is the U.S. government's official web portal to all federal, state and local government web resources and services.